www.pogodaiklimat.ru

Погода и климат >> Архив погоды >> Великобритания >> Авиабаза Coningsby


ПОГОДА на Авиабазе Coningsby

  • Прогноз погоды на Авиабазе Coningsby
  • Монитор погоды на Авиабазе Coningsby

АРХИВ ПОГОДЫ на Авиабазе Coningsby

Время (UTC), дата Ветер
(напр.,м/с)
 
Видим.   Явления Облачность Т
(С)
Тd
(С)
f
(%)
Тe
(С)
Тes
(С)
Комфортность P
(гПа)
Po
(гПа)
Тmin
(С)
Tmax
(С)
R
(мм)
R24
(мм)
S
(см)
07 10.09 СЗ 5 4000 м дымка 6/6 210 м
[Sc]
+11.9 +11.3 96 +9 +10 1017.4 1016.7
08 10.09 СЗ 4 6000 м мгла 5/5 210 м
[St]
+11.9 +10.1 89 +10 +11 1017.8 1017.1
09 10.09 СЗ 4 12 км 1/1 360 м
[Cu hum Ci fib]
+13.3 +10.1 81 +12 +14 1018.5 1017.7
10 10.09 СЗ 4 25 км 4/3 540 м
[Cu hum Ci fib]
+15.1 +10.4 73 +14 +18 1018.6 1017.9
11 10.09 СЗ 5 25 км 5/4 800 м
[Cu hum Ci fib]
+17.5 +11.0 66 +17 +20 1018.5 1017.8
12 10.09 З 4 30 км 6/6 840 м
[Cu Sc]
+17.0 +10.4 65 +17 +19 1018.3 1017.6
13 10.09 СЗ 4 40 км 9/9 900 м
[Cu Sc]
+17.7 +10.2 61 +17 +18 1018.4 1017.7
14 10.09 З 6 45 км 9/9 1050 м
[Cu Sc]
+17.7 +9.2 57 +17 +17 1018.5 1017.8
15 10.09 СЗ 5 50 км 9/9 1050 м
[Cu Sc]
+17.4 +9.4 59 +17 +17 1018.8 1018.1
16 10.09 З 6 45 км 8/8 1050 м
[Cu Sc]
+17.4 +8.9 57 +17 +17 1018.4 1017.7
17 10.09 З 5 45 км 8/8 1050 м
[Cu Sc]
+17.1 +9.3 60 +17 +17 1018.7 1017.9
18 10.09 З 5 45 км 9/4 1350 м
[Sc Ci fib]
+16.7 +8.5 58 +16 +16 1018.6 1017.9 +17.9
19 10.09 З 2 35 км 1/1 1200 м
[Sc]
+12.4 +7.8 74 +12 +12 1018.7 1017.9
20 10.09 ЮЗ 2 35 км 9/0
[As op]
+12.0 +8.2 78 +11 +11 1018.5 1017.8
21 10.09 Ю 3 23 км н/о +11.6 +8.8 83 +10 +10 1018.2 1017.4
22 10.09 ЮЗ 3 30 км 10/1 1350 м
[Sc As op]
+12.3 +9.4 82 +11 +11 1018.3 1017.5
23 10.09 ЮЗ 3 40 км 10/10 1500 м
[Sc]
+13.4 +9.1 75 +12 +12 1017.3 1016.6
00 11.09 ЮЗ 4 40 км 10/10 1500 м
[Sc]
+13.7 +8.3 70 +12 +12 1017.2 1016.5
01 11.09 Ю 4 30 км н/о +13.3 +9.2 76 +12 +12 1016.6 1015.9
02 11.09 ЮЗ 6 23 км н/о +13.1 +9.5 79 +11 +11 1016.0 1015.3
03 11.09 ЮЗ 5 35 км 10/10 1110 м
[Sc]
+13.2 +9.8 80 +11 +11 1015.5 1014.8
04 11.09 ЮЗ 6 25 км слаб. дождь 10/10 540 м
[Sc]
+13.2 +10.5 84 +11 +11 1014.5 1013.8
05 11.09 ЮЗ 7 35 км в посл. час дождь 6/6 540 м
[Sc Ci fib]
+12.4 +10.5 88 +10 +10 1013.9 1013.2
06 11.09 Ю 6 30 км слаб. дождь 9/9 500 м
[Sc]
+12.8 +11.3 91 +10 +10 1013.7 1013.0 +11.2 0.6
07 11.09 ЮЗ 5 30 км в посл. час дождь 9/9 360 м
[Sc]
+14.5 +13.2 92 +13 +13 1013.7 1013.0
08 11.09 ЮЗ 6 40 км 9/9 360 м
[Sc]
+17.1 +14.8 86 +16 +16 1013.7 1013.0
09 11.09 ЮЗ 6 40 км {дождь} 9/9 400 м
[Sc]
+17.8 +15.1 84 +17 +17 1014.1 1013.3
10 11.09 ЮЗ 6 40 км 9/9 540 м
[Sc Ci fib]
+19.0 +15.5 80 +20 +20 1014.3 1013.6
11 11.09 З 8
{13}
45 км 8/8 660 м
[Cu hum]
+20.5 +15.7 74 +23 +23 комфорт 1014.3 1013.6
12 11.09 З 9
{13}
45 км {дождь} 8/8 750 м
[Cu Sc]
+22.0 +15.4 66 +26 +26 душно 1014.5 1013.8 0.2
13 11.09 З 6
{14}
35 км в посл. час ливневой дождь 5/5 750 м
[Cu Sc]
+19.0 +16.0 83 +20 +21 1015.7 1015.0
14 11.09 З 8 45 км 3/3 960 м
[Cu hum]
+21.9 +13.7 60 +25 +26 комфорт 1016.0 1015.3
15 11.09 З 7
{13}
45 км {ливн. осадки} 1/1 1200 м
[Cu hum]
+21.2 +10.8 51 +23 +24 комфорт 1016.8 1016.1
16 11.09 СЗ 8
{13}
45 км 1/1 1350 м
[Cu hum]
+20.4 +9.2 49 +21 +22 комфорт 1017.6 1016.9
17 11.09 З 8
{13}
45 км 1/1 1350 м
[Sc diur, vesp Ci fib]
+19.5 +8.9 50 +20 +20 1018.3 1017.6
18 11.09 З 7
{13}
40 км {ливн. осадки} 1/1 1350 м
[Sc]
+18.2 +8.2 52 +18 +18 1019.1 1018.4 +22.2 0.4
19 11.09 СЗ 4 40 км 1/1 1350 м
[Sc]
+16.4 +8.5 60 +16 +16 1020.1 1019.4
20 11.09 ЮЗ 2 40 км 1/1 1350 м
[Sc]
+13.1 +7.4 68 +12 +12 1020.8 1020.0
21 11.09 З 2 35 км 4/0
[Cc]
+12.2 +8.4 78 +12 +12 1021.1 1020.4
22 11.09 З 3 35 км 4/0
[Cc]
+12.0 +9.0 82 +11 +11 1021.5 1020.8
23 11.09 ЮЗ 3 30 км 5/4 1200 м
[Sc Ci fib]
+12.0 +9.5 85 +11 +11 1022.0 1021.3
00 12.09 ЮЗ 2 30 км 3/1 1200 м
[Sc Ci fib]
+11.4 +9.1 86 +10 +10 1022.3 1021.5
01 12.09 ЮЗ 3 25 км 4/3 1350 м
[Sc Ci fib]
+10.7 +8.6 87 +9 +9 1022.8 1022.1
02 12.09 ЮЗ 2 30 км н/о +11.2 +9.4 89 +10 +10 1023.0 1022.3
03 12.09 ЮЗ 2 24 км н/о +10.5 +9.2 92 +9 +9 1023.2 1022.5
04 12.09 ЮЗ 3 15 км 3/3 1200 м
[Sc]
+10.6 +9.2 91 +9 +9 1022.9 1022.2
05 12.09 ЮЗ 3 15 км 3/3 1200 м
[Sc Ac trans]
+10.1 +9.3 95 +8 +8 1023.2 1022.5
06 12.09 ЮЗ 3 15 км 4/3 1200 м
[Sc Ac As Ci sp]
+10.3 +9.5 95 +8 +8 1023.8 1023.0 +9.3
07 12.09 ЮЗ 3 20 км 4/1 1500 м
[Sc Ac trans]
+12.0 +10.7 92 +10 +11 1024.2 1023.4
08 12.09 ЮЗ 4 25 км 5/1 1500 м
[Sc Ac trans]
+14.9 +12.4 85 +14 +15 1024.4 1023.7
09 12.09 ЮЗ 6 30 км 8/4 660 м
[Cu Sc Ac trans]
+17.6 +13.2 75 +17 +18 1024.5 1023.8
10 12.09 ЮЗ 8 30 км 6/4 750 м
[Cu Sc Ac trans Ci sp]
+19.5 +13.9 70 +20 +21 1024.6 1023.8
11 12.09 ЮЗ 7 40 км 3/3 750 м
[Cu Sc Ac trans Ci sp]
+21.1 +14.4 66 +24 +26 комфорт 1024.2 1023.5
12 12.09 ЮЗ 9
{13}
50 км 8/8 900 м
[Cu Sc]
+21.8 +14.3 62 +25 +25 комфорт 1023.6 1022.9
13 12.09 ЮЗ 8
{13}
50 км 8/8 960 м
[Cu Sc]
+21.7 +15.0 66 +25 +25 комфорт 1023.7 1023.0
14 12.09 ЮЗ 9
{13}
50 км 4/4 900 м
[Cu Sc Ac trans Ci sp]
+24.0 +15.9 61 +27 +28 жарко 1023.0 1022.3
15 12.09 ЮЗ 9
{15}
50 км 8/8 960 м
[Cu Sc]
+22.9 +15.5 63 +27 +27 душно 1023.0 1022.3
16 12.09 ЮЗ 9
{13}
50 км 6/3 960 м
[Cu Sc Ac trans Ci sp]
+23.0 +15.6 63 +27 +27 душно 1022.7 1022.0
17 12.09 ЮЗ 6 50 км 8/8 1050 м
[Cu Sc]
+22.2 +15.5 66 +26 +26 душно 1023.1 1022.4
18 12.09 З 8
{13}
45 км 8/8 1050 м
[Sc]
+21.4 +12.9 58 +24 +24 комфорт 1023.6 1022.9 +24.4
19 12.09 З 9
{13}
40 км 8/8 1050 м
[Sc]
+20.3 +13.3 64 +22 +22 комфорт 1024.1 1023.4
20 12.09 З 8
{13}
40 км 8/8 900 м
[Sc]
+19.4 +14.3 72 +20 +20 1024.9 1024.2
21 12.09 З 7 40 км 9/9 600 м
[Sc]
+18.1 +15.1 83 +17 +17 1025.8 1025.0
22 12.09 З 6 40 км 9/9 540 м
[Sc]
+17.7 +16.0 90 +17 +17 1026.4 1025.7
23 12.09 СЗ 7 50 км 6/6 750 м
[Sc]
+16.7 +13.2 80 +15 +15 1027.4 1026.7
00 13.09 СЗ 5 50 км 3/3 1500 м
[Sc]
+15.3 +12.7 84 +14 +14 1028.3 1027.6
01 13.09 СЗ 5 50 км 3/3 1500 м
[Sc]
+14.1 +12.0 87 +12 +12 1029.2 1028.4
02 13.09 СЗ 5 55 км н/о +13.2 +9.1 76 +11 +11 1030.0 1029.2
03 13.09 СЗ 5 45 км н/о +12.1 +7.1 71 +10 +10 1031.0 1030.3
04 13.09 СЗ 3 30 км ясно +10.7 +7.1 78 +9 +9 1031.6 1030.8
05 13.09 СЗ 2 30 км 4/1 1500 м
[Sc Ci fib]
+10.0 +6.8 80 +8 +8 1032.3 1031.5
06 13.09 З 3 30 км 8/1 1500 м
[Sc Ci fib]
+9.5 +7.3 86 +7 +7 1033.2 1032.4 +7.8
07 13.09 СЗ 3 25 км 8/0
[Ci fib]
+10.5 +8.9 90 +9 +9 1033.9 1033.2
08 13.09 СЗ 4 25 км 8/0
[Ci fib]
+11.7 +9.0 83 +9 +11 1034.9 1034.2
09 13.09 СЗ 4 30 км 6/0
[Ci fib]
+13.4 +8.2 71 +12 +14 1035.4 1034.7
10 13.09 С 4 35 км 6/0
[Ci fib]
+15.1 +7.3 60 +14 +19 1035.7 1035.0
11 13.09 СЗ 3 40 км 8/1 1050 м
[Cu hum Ci fib]
+16.5 +7.2 54 +16 +22 1035.9 1035.1
12 13.09 СЗ 3 40 км 8/1 1350 м
[Cu hum Ci fib]
+17.5 +5.5 45 +18 +24 1035.8 1035.1
13 13.09 С 3 50 км 6/1 1350 м
[Cu hum Ci fib]
+18.7 +6.5 45 +19 +25 1035.6 1034.9
14 13.09 СЗ 5 50 км 4/1 1500 м
[Cu hum Ci sp]
+19.0 +5.2 40 +19 +22 1035.6 1034.8
15 13.09 С 4 40 км 5/1 1500 м
[Cu hum Ci fib]
+19.3 +4.4 37 +20 +22 1035.6 1034.9
16 13.09 С 4 40 км 6/1 1500 м
[Cu hum Ci fib]
+19.1 +4.6 38 +20 +21 1035.4 1034.7
17 13.09 В 4 40 км 6/1 1500 м
[Cu hum Ci fib]
+17.2 +8.2 55 +17 +17 1035.5 1034.7
18 13.09 ЮВ 3 40 км 4/1 1500 м
[Cu hum Ci fib]
+14.7 +8.6 67 +14 +14 1035.8 1035.0 +19.8
19 13.09 В 3 35 км 1/1 1500 м
[Sc Ci fib]
+13.0 +8.7 75 +12 +12 1035.7 1035.0
20 13.09 В 3 30 км 1/0
[Ci fib]
+12.1 +8.8 80 +11 +11 1036.5 1035.7
21 13.09 СВ 2 30 км 1/0
[Ci fib]
+11.5 +8.8 83 +11 +11 1036.9 1036.1
22 13.09 В 2 30 км 1/0
[Ci fib]
+11.4 +9.0 85 +10 +10 1036.7 1035.9
23 13.09 В 1 30 км 1/0
[Ci fib]
+9.0 +6.9 87 +9 +9 1036.6 1035.9
00 14.09 СЗ 1 25 км 1/0
[Ci fib]
+8.9 +7.8 93 +9 +9 1036.7 1035.9
01 14.09 В 1 25 км 1/0
[Ci fib]
+8.5 +7.7 95 +8 +8 1036.5 1035.7
02 14.09 В 2 25 км 1/0
[Ci fib]
+8.5 +7.7 95 +7 +7 1036.0 1035.3
03 14.09 В 2 20 км 1/0
[Ci fib]
+7.9 +7.3 96 +6 +6 1035.7 1034.9
04 14.09 ЮВ 1 20 км местами туман поземный 4/0
[Ci fib]
+7.2 +6.6 96 +6 +6 1035.2 1034.4
05 14.09 ЮВ 1 15 км местами туман поземный 8/0
[Ci fib]
+6.0 +5.4 96 +6 +6 1034.8 1034.1
06 14.09 Ю 1 15 км местами туман поземный 8/0
[Ci fib]
+5.9 +5.6 98 +4 +4 1034.7 1034.0 +5.9
07 14.09 Ю 2 15 км 8/0
[Ci sp]
+7.8 +7.7 99 +6 +7 1034.3 1033.6
08 14.09 Ю 2 20 км 8/0
[Ci sp]
+10.7 +8.6 87 +10 +12 1034.4 1033.7
09 14.09 ЮЗ 3 30 км 5/0
[Ci fib]
+14.4 +9.0 70 +14 +17 1034.3 1033.5
10 14.09 Ю 5 35 км 5/0
[Ci fib]
+17.2 +6.7 50 +17 +20 1033.6 1032.9
11 14.09 ЮЗ 6 40 км 6/0
[Ci fib]
+18.9 +6.9 46 +19 +22 1033.3 1032.6
12 14.09 ЮЗ 5 40 км 8/0
[Ci sp]
+19.5 +7.1 45 +20 +24 1032.1 1031.4
13 14.09 ЮЗ 5 40 км 8/0
[Ci sp]
+19.6 +6.3 42 +20 +24 1031.1 1030.3
14 14.09 ЮЗ 5 40 км 9/0
[Ci sp]
+20.9 +6.3 39 +22 +25 комфорт 1029.9 1029.2
15 14.09 ЮЗ 5 40 км 8/0
[Ci sp]
+20.8 +5.6 37 +22 +23 комфорт 1029.1 1028.4
16 14.09 ЮЗ 5 40 км 4/0
[Ci sp]
+21.6 +6.6 38 +22 +24 комфорт 1028.2 1027.5
17 14.09 ЮЗ 5 40 км 4/0
[Ci sp]
+20.7 +5.8 38 +22 +22 комфорт 1027.3 1026.6
18 14.09 ЮЗ 3 40 км 8/0
[Ci sp]
+17.1 +6.8 51 +17 +17 1027.3 1026.6 +22.0
19 14.09 ЮЗ 3 40 км 8/0
[Ci sp]
+14.7 +6.8 59 +14 +14 1026.9 1026.2
20 14.09 ЮЗ 3 40 км 9/0
[Ci sp]
+14.4 +7.2 62 +14 +14 1026.9 1026.1
21 14.09 ЮЗ 4 40 км 9/0
[Ci sp]
+12.9 +7.4 69 +11 +11 1026.1 1025.4
22 14.09 ЮЗ 3 35 км 9/0
[Ci sp]
+12.4 +6.8 69 +11 +11 1025.6 1024.9
23 14.09 Ю 3 35 км 9/0
[Ci sp]
+11.0 +6.7 75 +9 +9 1025.1 1024.3
00 15.09 ЮЗ 4 35 км 9/0
[Ci sp]
+11.7 +7.9 77 +10 +10 1024.8 1024.0
01 15.09 Ю 4 30 км 9/0
[Ci sp]
+11.2 +7.9 80 +9 +9 1024.1 1023.4
02 15.09 Ю 2 30 км 9/0
[Ci sp]
+9.9 +7.1 83 +8 +8 1023.7 1023.0
03 15.09 З 6 30 км 9/0
[Ci sp]
+14.2 +10.4 78 +12 +12 1022.7 1022.0
04 15.09 З 7 30 км 9/0
[Ci sp]
+13.9 +9.6 75 +12 +12 1022.4 1021.6
05 15.09 З 7 30 км 9/0
[Ci sp]
+13.6 +9.4 76 +11 +11 1022.1 1021.4
06 15.09 З 6 30 км 9/0
[Ac trans Ci sp]
+13.0 +9.5 79 +11 +11 1022.1 1021.4 +9.8
07 15.09 З 3 35 км 6/0
[Ac trans Cs]
+14.6 +10.9 78 +14 +14 1022.5 1021.8
08 15.09 З 5 40 км 8/0
[Ac trans Cs]
+15.5 +11.3 76 +14 +15 1023.2 1022.4
09 15.09 З 5 40 км 5/3 600 м
[Sc Ci fib]
+18.0 +12.9 72 +18 +19 1023.1 1022.4
10 15.09 З 7 40 км 6/5 660 м
[Cu Sc Ci fib]
+19.0 +13.5 70 +19 +20 1023.1 1022.3
11 15.09 З 6 40 км 9/9 660 м
[Cu Sc]
+19.1 +13.5 70 +20 +20 1023.2 1022.5
12 15.09 З 6 40 км 9/9 720 м
[Sc]
+19.3 +14.0 71 +20 +21 1023.1 1022.4
13 15.09 З 6 40 км 9/9 700 м
[Sc]
+19.0 +13.7 71 +20 +20 1023.0 1022.3
14 15.09 СЗ 4 40 км 9/9 660 м
[Sc]
+18.8 +13.9 73 +20 +20 1023.0 1022.3
15 15.09 СЗ 3 40 км 9/9 800 м
[Sc]
+18.9 +13.3 70 +20 +21 1022.7 1022.0
16 15.09 СЗ 5 40 км 9/9 900 м
[Sc]
+18.2 +10.9 62 +18 +18 1022.9 1022.2
17 15.09 С 3 30 км 10/10 800 м
[Sc]
+17.7 +10.7 64 +18 +18 1022.7 1022.0
18 15.09 В 2 30 км 10/10 720 м
[Sc]
+17.2 +10.9 66 +18 +18 1022.7 1022.0 +19.6
19 15.09 В 2 20 км слаб. дождь 10/10 660 м
[Sc]
+14.9 +12.0 83 +15 +15 1022.9 1022.2
20 15.09 В 2 15 км слаб. дождь 10/10 660 м
[Sc]
+14.0 +12.4 90 +14 +14 1022.6 1021.9
21 15.09 СВ 2 15 км слаб. дождь 10/10 660 м
[Sc]
+14.0 +12.4 90 +14 +14 1022.6 1021.9
22 15.09 В 3 8000 м слаб. дождь 10/10 540 м
[Sc]
+12.9 +11.9 94 +11 +11 1022.8 1022.1
23 15.09 СВ 2 6000 м дождь 10/10 360 м
[Sc]
+12.2 +11.5 95 +11 +11 1022.6 1021.9
00 16.09 СВ 2 5000 м дождь 10/10 150 м
[Sc]
+11.7 +11.2 97 +10 +10 1022.5 1021.7 3
01 16.09 В 3 4000 м дождь 10/10 180 м
[Sc]
+11.8 +11.5 98 +10 +10 1022.1 1021.3
02 16.09 В 2 3000 м дождь {морось} 10/10 90 м
[Sc]
+11.9 +11.8 99 +11 +11 1021.8 1021.1
03 16.09 СВ 2 3500 м дождь {морось} 10/10 120 м
[Sc]
+12.0 +11.9 99 +11 +11 1021.5 1020.7
04 16.09 С 2 4000 м дождь {морось} 10/10 120 м
[St]
+12.2 +12.0 99 +11 +11 1021.1 1020.4
05 16.09 С 3 3000 м дождь {морось} 10/10 90 м
[St]
+12.1 +11.9 99 +11 +11 1021.0 1020.3
06 16.09 С 2 3000 м дождь {морось} 10/10 90 м
[Frnb]
+12.1 +12.0 99 +11 +11 1021.2 1020.5 +11.7 7
07 16.09 С 2 10 км в посл. час дождь {морось} 10/10 90 м
[Sc]
+12.3 +12.1 99 +11 +11 1021.4 1020.7
08 16.09 С 3 12 км 10/10 180 м
[Sc]
+12.9 +12.1 95 +12 +12 1021.8 1021.1
09 16.09 С 3 12 км {дождь, морось} 10/10 240 м
[Sc]
+13.4 +11.7 89 +12 +12 1022.4 1021.7
10 16.09 С 3 10 км 10/10 300 м
[Sc]
+13.9 +11.8 87 +13 +13 1022.6 1021.9
11 16.09 С 3 12 км 10/10 450 м
[Sc]
+14.4 +11.2 81 +14 +14 1022.6 1021.9
12 16.09 СЗ 2 15 км {дождь, морось} 9/8 600 м
[Cu Sc Ci fib]
+15.6 +10.5 72 +16 +17 1022.5 1021.7 0.0
13 16.09 СЗ 3 15 км 9/5 750 м
[Cu hum Ci fib]
+16.0 +10.5 70 +16 +19 1022.6 1021.9
14 16.09 С 4 18 км 9/4 840 м
[Cu hum Ci fib]
+16.6 +9.1 61 +16 +18 1022.5 1021.7
15 16.09 С 3 20 км 8/4 1050 м
[Cu hum Ci fib]
+16.0 +8.3 60 +16 +17 1022.4 1021.7
16 16.09 З 3 25 км 9/1 1050 м
[Sc diur, vesp Ci fib]
+16.9 +8.5 58 +17 +18 1022.1 1021.4
17 16.09 СЗ 3 25 км 6/1 1200 м
[Sc Ci fib]
+16.4 +8.1 58 +16 +17 1022.3 1021.5
18 16.09 СЗ 2 25 км 6/1 1200 м
[Sc Ci fib]
+15.7 +8.7 63 +16 +16 1022.4 1021.7 +17.2 0.0
19 16.09 З 2 30 км 8/1 1200 м
[Sc Ci fib]
+13.2 +9.4 78 +13 +13 1022.6 1021.8
20 16.09 З 1 30 км 8/1 1200 м
[Sc Ci fib]
+11.8 +8.7 81 +13 +13 1023.0 1022.3
21 16.09 ЮВ 1 30 км 6/1 1200 м
[Sc Ci fib]
+10.3 +8.4 88 +11 +11 1022.9 1022.2
22 16.09 З 2 30 км 5/3 1050 м
[Sc Ci fib]
+12.1 +9.2 82 +11 +11 1023.1 1022.4
23 16.09 СЗ 2 30 км 4/1 1050 м
[Sc Ci fib]
+10.9 +8.4 85 +10 +10 1022.8 1022.1
00 17.09 СЗ 3 30 км 4/1 1050 м
[Sc Ci fib]
+10.1 +8.3 89 +8 +8 1023.1 1022.3
01 17.09 СЗ 3 30 км 3/1 1050 м
[Sc Ci fib]
+9.5 +8.2 92 +7 +7 1023.1 1022.4
02 17.09 СЗ 2 25 км 3/1 1050 м
[Sc Ci fib]
+9.1 +7.9 92 +7 +7 1023.4 1022.7
03 17.09 З 3 20 км 4/1 1050 м
[Sc Ci fib]
+9.1 +8.0 93 +7 +7 1023.5 1022.8
04 17.09 СЗ 3 20 км 1/1 1050 м
[Sc Ci fib]
+8.9 +7.6 92 +6 +6 1023.2 1022.5
05 17.09 З 2 20 км 4/1 1050 м
[Sc Ci fib]
+7.7 +6.4 91 +6 +6 1023.4 1022.7
06 17.09 СЗ 2 30 км 4/0
[Ci fib]
+7.8 +6.2 90 +6 +6 1023.9 1023.2 +7.4

 

Местоположение метеостанции Авиабаза Coningsby (Великобритания): широта 53.08 долгота -0.17 высота над уровнем моря 6 м.

В архиве по умолчанию представлена погода на Авиабазе Coningsby за последнюю неделю. Архивные данные за месяц целиком и за предыдущие месяцы, начиная с января 2011 года, Вы можете получить, выбрав интересующий диапазон дат из раскрывающегося списка и нажав кнопку "Ввод!".


*Определитесь, кто Вы:
робот инопланетянин человек

Внимание! Время в таблицах - всемирное. Для получения местного времени необходимо прибавить поправку, которая равна 0 ч.

Смотрите также архив погоды в соседних городах и на ближайших метеорологических станциях:

Погода в Крануэлле (Великобритания) (23 км)
Погода в Уоддингтоне (Великобритания) (25 км)
Погода в Уэйнфлите (Великобритания) (29 км)
Погода в Холбиче (Великобритания) (32 км)
Погода в Скемптоне (Великобритания) (35 км)
Погода в Донна Нук (Великобритания) (47 км)
Погода в Виттеринге (Великобритания) (55 км)
Погода в Мархеме (Великобритания) (69 км)
Погода в Ноттингеме (Великобритания) (73 км)
Погода в Уэйборне (Великобритания) (88 км)

Пояснения к столбцам:

Ветер - указаны скорость ветра в м/с - средняя за 10 мин, порывы в срок и между сроками (в фигурных скобках) и направление, откуда дует ветер: С - северный, СВ - северо-восточный, В - восточный, ЮВ - юго-восточный, Ю - южный, ЮЗ - юго-западный, З - западный, СЗ - северо-западный.
Видимость - горизонтальная дальность видимости в метрах или километрах. При видимости от 1 до 10 км при отсутствии осадков обычно наблюдается дымка, при ухудшении видимости до 1 км и менее - туман. В сухую погоду видимость может ухудшаться дымом, пылью или мглою.
Явления - указаны атмосферные явления, наблюдавшиеся в срок или в последний час перед сроком; фигурными скобками обозначены явления, наблюдавшиеся между сроками (за 1-3 часа до срока); квадратными скобками обозначены град или гололедные отложения с указанием их диаметра в мм.
Облачность - указаны через наклонную черту общая и нижняя облачность в баллах и высота нижней границы облаков в метрах; квадратными скобками обозначены формы облаков: Ci - перистые, Cs - перисто-слоистые, Cc - перисто-кучевые, Ac - высококучевые, As - высокослоистые, Sc - слоисто-кучевые, Ns - слоисто-дождевые, Cu - кучевые, Cb - кучево-дождевые. Подробнее классификацию облаков см. в Атласе облаков (PDF).
T - Температура воздуха - температура, измеренная на высоте 2 м над землей.
Td - Температура точки росы - температура, при понижении до которой содержащийся в воздухе водяной пар достигнет насыщения.
f - Относительная влажность воздуха - влажноcть воздуха, измеренная на высоте 2 м над землей.
Te - Эффективная температура - температура, которую ощущает одетый по сезону человек в тени. Характеристика душности погоды. При расчете учитывается влияние влажности воздуха и скорости ветра на теплоощущения человека.
Tes - Эффективная температура на солнце - температура, которую ощущает человек, с поправкой на солнечный нагрев. Характеристика знойности погоды. Зависит от высоты солнца над горизонтом, облачности и скорости ветра. Ночью, в пасмурную погоду, а также при ветре 12 м/с и более поправка равна нулю.
P - Атмосферное давление - приведенное к уровню моря атмосферное давление.
Po - Атмосферное давление - измеренное на уровне метеостанции атмосферное давление.
Tmin - Минимальная температура - минимум температуры воздуха на высоте 2 м над землей.
Tmax - Максимальная температура - максимум температуры воздуха на высоте 2 м над землей.
R - Количество осадков - Количество выпавших осадков за период времени, мм. При наведении курсора мыши на число - период времени, за который выпало указанное количество осадков.
R24 - Количество осадков - Количество выпавших осадков за 24 часа, мм.
S - Снежный покров - Высота снежного покрова, см. При наведении курсора мыши на число - состояние снежного покрова и степень покрытия местности в баллах.